GW4436 Weather Reports


Display with metric or nautical units.
time (UTC)temp
F
wind
direction
speed
MPH
gust
MPH
rain 1hr
in
rain 24hr
in
rain mn
in
humidity
%
barometer
mb
20260508052004 75 222 1.0 4.0 0.00 0.00 0.00 87 1014.7
20260508051007 75 296 2.0 5.0 0.00 0.00 0.00 87 1014.8
20260508050506 75 238 2.0 5.0 0.00 0.00 0.00 87 1014.7
20260508050009 75 248 1.0 4.0 0.00 0.00 0.00 87 1014.7
20260508045505 75 238 2.0 4.0 0.00 0.00 0.00 87 1014.7
20260508045004 75 240 1.0 3.0 0.00 0.00 0.00 87 1014.6
20260508044511 75 219 2.0 4.0 0.00 0.00 0.00 87 1014.5
20260508044008 75 230 2.0 4.0 0.00 0.00 0.00 87 1014.5
20260508043504 75 222 1.0 4.0 0.00 0.00 0.00 86 1014.6
20260508043012 75 217 2.0 4.0 0.00 0.00 0.00 86 1014.5
20260508042505 75 253 1.0 4.0 0.00 0.00 0.00 86 1014.4
20260508042006 75 205 2.0 4.0 0.00 0.00 0.00 86 1014.5
20260508041514 75 203 2.0 4.0 0.00 0.00 0.00 86 1014.5
20260508041004 75 227 2.0 5.0 0.00 0.00 0.00 86 1014.5
20260508040008 75 255 2.0 6.0 0.00 0.00 0.00 87 1014.5
20260508034515 75 238 4.0 7.0 0.00 0.00 0.00 87 1014.5
20260508034004 75 247 2.0 5.0 0.00 0.00 0.00 87 1014.7
20260508033504 75 198 1.0 3.0 0.00 0.00 0.00 88 1014.7
20260508033016 75 242 1.0 3.0 0.00 0.00 0.00 88 1014.7
20260508032508 75 276 1.0 4.0 0.00 0.00 0.00 88 1014.7
20260508032007 75 306 2.0 4.0 0.00 0.00 0.00 88 1014.7
20260508031518 75 301 1.0 2.0 0.00 0.00 0.00 88 1014.7
20260508031004 75 259 1.0 2.0 0.00 0.00 0.00 88 1014.5
20260508030504 75 237 1.0 3.0 0.00 0.00 0.00 88 1014.4
20260508030007 75 261 1.0 3.0 0.00 0.00 0.00 87 1014.4
20260508025504 75 236 0.0 2.0 0.00 0.00 0.00 87 1014.3
20260508025002 75 281 0.0 2.0 0.00 0.00 0.00 87 1014.4
20260508024521 75 290 1.0 2.0 0.00 0.00 0.00 87 1014.4
20260508024003 75 241 0.0 2.0 0.00 0.00 0.00 87 1014.2
20260508023502 75 214 1.0 2.0 0.00 0.00 0.00 86 1014.0
20260508023003 75 209 1.0 2.0 0.00 0.00 0.00 86 1013.9
20260508022503 76 229 1.0 2.0 0.00 0.00 0.00 85 1013.9
20260508022003 76 250 0.0 2.0 0.00 0.00 0.00 85 1013.8
20260508021507 76 237 1.0 3.0 0.00 0.00 0.00 85 1013.8
20260508021007 76 286 0.0 4.0 0.00 0.00 0.00 85 1013.8
20260508020504 76 305 2.0 4.0 0.00 0.00 0.00 85 1013.8
20260508020006 76 310 2.0 4.0 0.00 0.00 0.00 85 1013.9
20260508015506 76 311 2.0 4.0 0.00 0.00 0.00 85 1013.8
20260508015003 76 326 1.0 2.0 0.00 0.00 0.00 84 1013.8
20260508013504 77 250 0.0 3.0 0.00 0.00 0.00 83 1013.7
20260508013003 77 273 1.0 3.0 0.00 0.00 0.00 83 1013.7
20260508012502 77 300 1.0 3.0 0.00 0.00 0.00 83 1013.8
20260508012002 77 313 1.0 3.0 0.00 0.00 0.00 82 1013.7
20260508011505 77 302 1.0 3.0 0.00 0.00 0.00 82 1013.5
20260508011003 77 299 1.0 3.0 0.00 0.00 0.00 82 1013.6
20260508010503 77 307 1.0 3.0 0.00 0.00 0.00 82 1013.4
20260508010010 77 287 2.0 3.0 0.00 0.00 0.00 81 1013.5
20260508005503 78 304 2.0 3.0 0.00 0.00 0.00 81 1013.5
20260508005004 78 295 2.0 3.0 0.00 0.00 0.00 81 1013.4
20260508004531 78 310 1.0 4.0 0.00 0.00 0.00 81 1013.4
20260508004007 78 321 2.0 4.0 0.00 0.00 0.00 80 1013.2
20260508003504 78 342 1.0 4.0 0.00 0.00 0.00 80 1013.3
20260508003009 78 319 3.0 5.0 0.00 0.00 0.00 79 1013.3
20260508002006 79 338 2.0 4.0 0.00 0.00 0.00 78 1013.1
20260508001512 79 335 2.0 5.0 0.00 0.00 0.00 78 1013.1
20260508001002 79 321 3.0 5.0 0.00 0.00 0.00 77 1013.2
20260508000502 80 314 2.0 6.0 0.00 0.00 0.00 77 1013.3
20260508000003 80 313 3.0 6.0 0.00 0.00 0.00 76 1013.2
20260507235504 80 309 3.0 5.0 0.00 0.00 0.00 76 1013.1
20260507233508 81 288 4.0 6.0 0.00 0.00 0.00 74 1013.2
20260507232508 81 321 3.0 6.0 0.00 0.00 0.00 73 1013.1
20260507231516 81 296 4.0 7.0 0.00 0.00 0.00 72 1013.1
20260507230504 82 316 2.0 6.0 0.00 0.00 0.00 71 1013.1
20260507223505 83 292 6.0 8.0 0.00 0.00 0.00 68 1012.7
20260507222506 82 269 4.0 10.0 0.00 0.00 0.00 68 1012.5
20260507222006 82 312 2.0 8.0 0.00 0.00 0.00 69 1012.5
20260507221518 83 174 3.0 7.0 0.00 0.00 0.00 68 1012.4
20260507221008 83 313 3.0 11.0 0.00 0.00 0.00 68 1012.4
20260507220016 82 238 4.0 10.0 0.00 0.00 0.00 69 1012.5
20260507215507 82 243 4.0 10.0 0.00 0.00 0.00 69 1012.5
20260507214505 81 269 7.0 12.0 0.00 0.00 0.00 69 1012.6
20260507214004 81 256 5.0 9.0 0.00 0.00 0.00 70 1012.5
20260507213507 81 287 4.0 9.0 0.00 0.00 0.00 72 1012.4
20260507213009 80 295 4.0 10.0 0.00 0.00 0.00 72 1012.5
20260507212506 80 270 5.0 12.0 0.00 0.00 0.00 72 1012.5
20260507212007 80 230 4.0 12.0 0.00 0.00 0.00 72 1012.3
20260507211513 79 223 6.0 11.0 0.00 0.00 0.00 72 1012.5
20260507211007 79 221 5.0 8.0 0.00 0.00 0.00 72 1012.2
20260507210506 79 224 5.0 8.0 0.00 0.00 0.00 72 1012.0
20260507210017 79 222 4.0 8.0 0.00 0.00 0.00 72 1012.2
20260507205010 79 205 8.0 12.0 0.00 0.00 0.00 72 1012.4
20260507203504 79 236 9.0 15.0 0.00 0.00 0.00 72 1012.8
20260507203010 79 213 7.0 15.0 0.00 0.00 0.00 71 1013.0
20260507202503 79 220 10.0 14.0 0.00 0.00 0.00 71 1012.7
20260507202005 79 198 6.0 16.0 0.00 0.00 0.00 71 1013.0
20260507201517 79 200 10.0 16.0 0.00 0.00 0.00 70 1013.2
20260507201009 79 202 10.0 16.0 0.00 0.00 0.00 68 1013.2
20260507200508 80 225 7.0 13.0 0.00 0.00 0.00 68 1013.6
20260507200017 80 220 7.0 12.0 0.00 0.00 0.00 66 1013.8
20260507195508 81 188 6.0 12.0 0.00 0.00 0.00 66 1013.8
20260507195010 81 238 8.0 13.0 0.00 0.00 0.00 64 1013.8
20260507194526 81 216 7.0 13.0 0.00 0.00 0.00 65 1014.0
20260507194012 81 199 6.0 16.0 0.00 0.00 0.00 65 1014.1
20260507192503 81 274 7.0 12.0 0.00 0.00 0.00 65 1014.3
20260507192006 81 233 7.0 16.0 0.00 0.00 0.00 66 1014.2
20260507191515 81 232 9.0 16.0 0.00 0.00 0.00 65 1014.2
20260507191010 81 226 8.0 15.0 0.00 0.00 0.00 65 1014.1
20260507190507 81 214 7.0 21.0 0.00 0.00 0.00 66 1014.1
20260507190014 81 211 14.0 21.0 0.00 0.00 0.00 66 1014.2
20260507185509 81 226 10.0 19.0 0.00 0.00 0.00 65 1014.2
20260507185007 81 195 10.0 19.0 0.00 0.00 0.00 66 1014.2
20260507184523 81 192 8.0 18.0 0.00 0.00 0.00 66 1014.2
20260507184006 81 203 8.0 20.0 0.00 0.00 0.00 67 1014.5
20260507183510 81 221 10.0 20.0 0.00 0.00 0.00 67 1014.9
20260507183024 81 202 10.0 18.0 0.00 0.00 0.00 67 1015.0
20260507182504 81 302 8.0 15.0 0.00 0.00 0.00 67 1015.2
20260507182004 81 226 7.0 16.0 0.00 0.00 0.00 68 1015.3
20260507181512 80 249 8.0 20.0 0.00 0.00 0.00 68 1015.5
20260507181004 80 200 11.0 20.0 0.00 0.00 0.00 68 1015.8
20260507180507 80 191 10.0 21.0 0.00 0.00 0.00 69 1016.0
20260507180010 80 259 12.0 21.0 0.00 0.00 0.00 70 1015.8
20260507175502 80 236 10.0 16.0 0.00 0.00 0.00 70 1016.3
20260507175003 80 262 10.0 15.0 0.00 0.00 0.00 70 1016.3
20260507174504 79 273 7.0 13.0 0.00 0.00 0.00 70 1016.4
20260507174005 79 231 8.0 16.0 0.00 0.00 0.00 72 1016.4
20260507173503 79 245 6.0 16.0 0.00 0.00 0.00 73 1016.4
20260507173011 79 241 7.0 15.0 0.00 0.00 0.00 73 1016.4
20260507172504 79 250 7.0 14.0 0.00 0.00 0.00 73 1016.5
20260507172003 78 202 7.0 12.0 0.00 0.00 0.00 73 1016.5
20260507171514 78 221 7.0 15.0 0.00 0.00 0.00 73 1016.5
20260507171004 78 223 8.0 15.0 0.00 0.00 0.00 73 1016.4
20260507170508 78 214 4.0 11.0 0.00 0.00 0.00 74 1016.3
20260507170016 78 240 6.0 14.0 0.00 0.00 0.00 74 1016.4
20260507165507 78 198 8.0 14.0 0.00 0.00 0.00 74 1016.3
20260507165005 78 250 3.0 10.0 0.00 0.00 0.00 75 1016.4
20260507164521 78 278 5.0 13.0 0.00 0.00 0.00 75 1016.5
20260507164004 78 220 5.0 13.0 0.00 0.00 0.00 75 1016.4
20260507163505 78 238 8.0 13.0 0.00 0.00 0.00 76 1016.3
20260507163003 77 210 7.0 11.0 0.00 0.00 0.00 76 1016.4
20260507162505 77 208 5.0 12.0 0.00 0.00 0.00 77 1016.5
20260507162004 77 265 7.0 12.0 0.00 0.00 0.00 76 1016.6
20260507161508 76 59 5.0 12.0 0.00 0.00 0.00 77 1016.7
20260507161011 76 250 7.0 12.0 0.00 0.00 0.00 79 1017.0
20260507160505 76 303 7.0 14.0 0.00 0.00 0.00 78 1017.2
20260507160014 75 312 4.0 14.0 0.00 0.00 0.00 78 1017.3
20260507155514 75 275 8.0 15.0 0.00 0.00 0.00 78 1017.4
20260507155006 76 295 7.0 15.0 0.00 0.00 0.00 77 1017.5
20260507154518 76 295 8.0 14.0 0.00 0.00 0.00 78 1017.6
20260507154011 76 311 8.0 14.0 0.00 0.00 0.00 77 1017.6
20260507153502 76 320 6.0 14.0 0.00 0.00 0.00 76 1017.6
20260507153005 76 309 7.0 15.0 0.00 0.00 0.00 76 1017.6
20260507152503 75 288 10.0 16.0 0.00 0.00 0.00 76 1017.7
20260507152001 75 291 8.0 16.0 0.00 0.00 0.00 78 1017.7
20260507151509 76 310 9.0 16.0 0.00 0.00 0.00 77 1017.6
20260507151003 76 306 6.0 15.0 0.00 0.00 0.00 79 1017.6
20260507150505 76 317 10.0 15.0 0.00 0.00 0.00 78 1017.5
20260507150021 76 302 7.0 12.0 0.00 0.00 0.00 78 1017.3
20260507145510 76 329 7.0 12.0 0.00 0.00 0.00 79 1017.2
20260507145007 76 328 6.0 11.0 0.00 0.00 0.00 79 1017.1
20260507144514 76 326 6.0 13.0 0.00 0.00 0.00 78 1017.0
20260507144006 76 294 9.0 12.0 0.00 0.00 0.00 77 1016.7
20260507143510 76 306 5.0 9.0 0.00 0.00 0.00 76 1016.6
20260507143021 76 290 5.0 8.0 0.00 0.00 0.00 77 1016.3
20260507142509 76 227 3.0 8.0 0.00 0.00 0.00 77 1016.1
20260507142007 75 311 3.0 7.0 0.00 0.00 0.00 78 1016.2
20260507141504 75 262 4.0 7.0 0.00 0.00 0.00 78 1016.1
20260507141004 75 275 2.0 5.0 0.00 0.00 0.00 78 1015.9
20260507140505 75 219 3.0 7.0 0.00 0.00 0.00 78 1015.9
20260507140010 75 285 5.0 7.0 0.00 0.00 0.00 79 1016.1
20260507135506 74 276 2.0 5.0 0.00 0.00 0.00 80 1016.1
20260507135003 74 322 2.0 5.0 0.00 0.00 0.00 81 1016.2
20260507134514 74 337 4.0 5.0 0.00 0.00 0.00 81 1016.3
20260507134006 73 253 2.0 4.0 0.00 0.00 0.00 83 1016.2
20260507133507 73 253 2.0 7.0 0.00 0.00 0.00 85 1016.2
20260507133021 72 267 3.0 7.0 0.00 0.00 0.00 85 1016.2
20260507132512 72 255 4.0 7.0 0.00 0.00 0.00 86 1016.2
20260507132008 71 294 2.0 5.0 0.00 0.00 0.00 88 1016.3
20260507131521 71 210 3.0 5.0 0.00 0.00 0.00 88 1016.2
20260507131004 71 255 3.0 5.0 0.00 0.00 0.00 89 1016.1
20260507130510 70 223 4.0 8.0 0.00 0.00 0.00 89 1016.0
20260507130006 70 264 2.0 8.0 0.00 0.00 0.00 89 1016.2
20260507125505 70 220 4.0 8.0 0.00 0.00 0.00 89 1016.1
20260507125008 70 195 4.0 6.0 0.00 0.00 0.00 89 1016.0
20260507124512 70 177 3.0 5.0 0.00 0.00 0.00 90 1015.8
20260507124006 69 216 2.0 4.0 0.00 0.00 0.00 90 1015.9
20260507123506 69 253 1.0 4.0 0.00 0.00 0.00 90 1016.1
20260507123036 69 236 2.0 4.0 0.00 0.00 0.00 90 1016.1
20260507122504 69 198 1.0 4.0 0.00 0.00 0.00 90 1016.0
20260507122004 69 190 2.0 2.0 0.00 0.00 0.00 90 1016.0
20260507121504 69 359 0.0 2.0 0.00 0.00 0.00 90 1016.1
20260507121003 68 359 1.0 2.0 0.00 0.00 0.00 90 1016.0
20260507120509 68 347 0.0 2.0 0.00 0.00 0.00 90 1016.1
20260507120007 68 347 1.0 2.0 0.00 0.00 0.00 90 1016.2
20260507115505 68 355 1.0 2.0 0.00 0.00 0.00 90 1016.4
20260507115004 68 355 0.0 3.0 0.00 0.00 0.00 90 1016.4
20260507114513 68 356 1.0 4.0 0.00 0.00 0.00 90 1016.4
20260507114002 68 356 2.0 4.0 0.00 0.00 0.00 90 1016.4
20260507113501 68 359 2.0 5.0 0.00 0.00 0.00 90 1016.5
20260507113008 68 359 3.0 5.0 0.00 0.00 0.00 89 1016.6
20260507112503 68 359 3.0 5.0 0.00 0.00 0.00 89 1016.4
20260507112003 68 347 4.0 5.0 0.00 0.00 0.00 89 1016.4
20260507111504 68 347 3.0 4.0 0.00 0.00 0.00 88 1016.4
20260507111004 68 359 3.0 5.0 0.00 0.00 0.00 87 1016.4
20260507104511 69 259 0.0 2.0 0.00 0.00 0.00 85 1015.8
20260507104009 69 259 0.0 2.0 0.00 0.00 0.00 85 1015.5
20260507103504 69 259 1.0 4.0 0.00 0.00 0.00 85 1015.6
20260507103015 69 248 1.0 3.0 0.00 0.00 0.00 85 1015.4
20260507102502 69 212 1.0 3.0 0.00 0.00 0.00 84 1015.4
20260507102003 69 286 1.0 4.0 0.00 0.00 0.00 84 1015.4
20260507101504 69 240 2.0 4.0 0.00 0.00 0.00 84 1015.3
20260507101002 69 256 1.0 6.0 0.00 0.00 0.00 84 1015.5
20260507100502 69 238 1.0 6.0 0.00 0.00 0.00 84 1015.5
20260507100008 69 205 3.0 6.0 0.00 0.00 0.00 84 1015.3
20260507095504 69 205 3.0 6.0 0.00 0.00 0.00 84 1015.3
20260507095004 70 203 4.0 8.0 0.00 0.00 0.00 84 1015.3
20260507094512 70 203 4.0 10.0 0.00 0.00 0.00 84 1015.2
20260507094008 70 189 6.0 10.0 0.00 0.00 0.00 83 1015.2
20260507093506 70 203 6.0 8.0 0.00 0.00 0.00 83 1015.1
20260507093013 70 185 5.0 7.0 0.00 0.00 0.00 83 1015.1
20260507092505 70 189 5.0 7.0 0.00 0.00 0.00 83 1015.1
20260507092004 70 206 4.0 10.0 0.00 0.00 0.00 83 1015.1
20260507091504 70 196 5.0 10.0 0.00 0.00 0.00 83 1015.1
20260507091003 70 208 4.0 8.0 0.00 0.00 0.00 84 1015.0
20260507090503 70 208 6.0 12.0 0.00 0.00 0.00 84 1015.0
20260507090010 70 184 6.0 12.0 0.00 0.00 0.00 84 1014.8
20260507085503 70 203 6.0 9.0 0.00 0.00 0.00 84 1014.7
20260507085004 70 191 6.0 8.0 0.00 0.00 0.00 84 1014.5
20260507084508 70 207 5.0 9.0 0.00 0.00 0.00 84 1014.4
20260507084003 70 206 4.0 9.0 0.00 0.00 0.00 84 1014.2
20260507083504 70 204 5.0 9.0 0.00 0.00 0.00 84 1014.0
20260507083016 70 202 6.0 9.0 0.00 0.00 0.00 83 1013.9
20260507082504 70 207 6.0 9.0 0.00 0.00 0.00 83 1014.0
20260507082007 70 224 5.0 9.0 0.00 0.00 0.00 83 1014.0
20260507081517 70 217 5.0 9.0 0.00 0.00 0.00 83 1013.9
20260507081005 70 188 4.0 11.0 0.00 0.00 0.00 82 1013.8
20260507080508 71 217 5.0 11.0 0.00 0.00 0.00 82 1013.9
20260507080005 71 219 6.0 8.0 0.00 0.00 0.00 82 1013.9
20260507075503 71 202 5.0 7.0 0.00 0.00 0.00 82 1014.0
20260507075003 71 191 5.0 8.0 0.00 0.00 0.00 82 1014.1
20260507074508 71 221 4.0 8.0 0.00 0.00 0.00 82 1014.1
20260507074003 71 206 5.0 8.0 0.00 0.00 0.00 82 1014.2
20260507073504 71 208 5.0 8.0 0.00 0.00 0.00 81 1014.1
20260507073011 71 189 6.0 10.0 0.00 0.00 0.00 81 1014.1
20260507072505 71 174 6.0 10.0 0.00 0.00 0.00 81 1014.2
20260507072006 71 193 5.0 7.0 0.00 0.00 0.00 80 1014.3
20260507071519 71 201 4.0 6.0 0.00 0.00 0.00 80 1014.5
20260507071005 71 191 3.0 5.0 0.00 0.00 0.00 80 1014.6
20260507070507 71 197 4.0 5.0 0.00 0.00 0.00 80 1014.7
20260507070028 71 201 3.0 5.0 0.00 0.00 0.00 80 1014.8
20260507065508 71 190 2.0 4.0 0.00 0.00 0.00 79 1014.8
20260507065013 72 203 2.0 4.0 0.00 0.00 0.00 79 1015.0
20260507064507 72 206 2.0 4.0 0.00 0.00 0.00 79 1014.8
20260507064003 72 205 3.0 5.0 0.00 0.00 0.00 79 1014.9
20260507063503 72 198 2.0 5.0 0.00 0.00 0.00 79 1014.9
20260507063011 72 176 2.0 3.0 0.00 0.00 0.00 79 1015.1
20260507062504 72 215 2.0 4.0 0.00 0.00 0.00 78 1015.1
20260507062004 72 210 3.0 4.0 0.00 0.00 0.00 78 1015.2
20260507061516 72 252 2.0 5.0 0.00 0.00 0.00 78 1015.3
20260507061011 72 226 3.0 6.0 0.00 0.00 0.00 78 1015.3
20260507060503 73 203 4.0 6.0 0.00 0.00 0.00 77 1015.3
20260507060007 73 189 4.0 5.0 0.00 0.00 0.00 77 1015.4
20260507055504 73 184 2.0 4.0 0.00 0.00 0.00 77 1015.3
20260507055003 73 162 2.0 4.0 0.00 0.00 0.00 77 1015.5
20260507054505 73 181 2.0 3.0 0.00 0.00 0.00 76 1015.6
20260507054004 73 184 2.0 3.0 0.00 0.00 0.00 76 1015.6
20260507053504 74 190 2.0 4.0 0.00 0.00 0.00 76 1015.5
20260507053010 74 173 2.0 4.0 0.00 0.00 0.00 76 1015.6
20260507052504 74 167 2.0 4.0 0.00 0.00 0.00 76 1015.5